EW0591 Weather Reports


Display with metric or nautical units.
time (UTC)temp
F
wind
direction
speed
MPH
gust
MPH
rain 1hr
in
rain 24hr
in
rain mn
in
humidity
%
barometer
mb
20260509182416 66 251 0.0 0.0 0.00 0.00 0.00 35 1027.5
20260509181914 66 143 1.0 2.0 0.00 0.00 0.00 39 1027.5
20260509181412 65 74 3.0 5.0 0.00 0.00 0.00 38 1027.6
20260509180909 65 200 1.0 1.0 0.00 0.00 0.00 37 1027.5
20260509180404 65 161 6.0 8.0 0.00 0.00 0.00 36 1027.8
20260509175901 66 161 3.0 3.0 0.00 0.00 0.00 35 1027.4
20260509175357 66 233 1.0 2.0 0.00 0.00 0.00 37 1027.5
20260509174854 65 268 1.0 1.0 0.00 0.00 0.00 36 1027.6
20260509174350 65 99 1.0 2.0 0.00 0.00 0.00 35 1027.6
20260509173846 65 196 0.0 0.0 0.00 0.00 0.00 41 1027.6
20260509173341 64 334 2.0 2.0 0.00 0.00 0.00 37 1027.8
20260509172837 64 152 2.0 2.0 0.00 0.00 0.00 40 1027.6
20260509172334 63 284 1.0 1.0 0.00 0.00 0.00 38 1027.5
20260509171830 64 169 5.0 6.0 0.00 0.00 0.00 38 1027.8
20260509171326 63 183 2.0 3.0 0.00 0.00 0.00 38 1027.6
20260509170823 63 63 3.0 3.0 0.00 0.00 0.00 38 1027.6
20260509170318 62 185 6.0 8.0 0.00 0.00 0.00 38 1027.8
20260509165818 63 208 1.0 2.0 0.00 0.00 0.00 39 1027.9
20260509165313 63 187 3.0 5.0 0.00 0.00 0.00 39 1027.9
20260509164809 63 299 0.0 1.0 0.00 0.00 0.00 39 1027.6
20260509164306 63 188 3.0 5.0 0.00 0.00 0.00 41 1028.0
20260509163802 63 95 2.0 2.0 0.00 0.00 0.00 40 1028.1
20260509163259 61 355 5.0 5.0 0.00 0.00 0.00 42 1028.1
20260509162758 60 184 0.0 1.0 0.00 0.00 0.00 43 1028.1
20260509162251 60 59 2.0 2.0 0.00 0.00 0.00 43 1028.2
20260509161747 60 355 3.0 5.0 0.00 0.00 0.00 47 1027.9
20260509161243 60 296 2.0 2.0 0.00 0.00 0.00 43 1028.0
20260509160739 59 1 4.0 6.0 0.00 0.00 0.00 47 1028.1
20260509160236 58 302 3.0 3.0 0.00 0.00 0.00 47 1027.8
20260509155731 58 336 2.0 3.0 0.00 0.00 0.00 45 1028.0
20260509155227 58 333 5.0 6.0 0.00 0.00 0.00 45 1028.0
20260509154723 58 61 2.0 3.0 0.00 0.00 0.00 44 1028.2
20260509154220 58 41 3.0 3.0 0.00 0.00 0.00 48 1028.2
20260509153718 58 324 2.0 3.0 0.00 0.00 0.00 47 1028.3
20260509153214 57 324 3.0 3.0 0.00 0.00 0.00 47 1028.0
20260509152710 57 346 2.0 2.0 0.00 0.00 0.00 49 1028.1
20260509152207 56 340 3.0 3.0 0.00 0.00 0.00 52 1027.9
20260509151704 56 37 0.0 1.0 0.00 0.00 0.00 55 1028.0
20260509151201 55 335 4.0 5.0 0.00 0.00 0.00 51 1028.1
20260509150659 54 314 2.0 2.0 0.00 0.00 0.00 51 1028.1
20260509150157 54 325 2.0 2.0 0.00 0.00 0.00 56 1028.0
20260509145653 53 201 0.0 0.0 0.00 0.00 0.00 59 1027.9
20260509145148 53 333 3.0 3.0 0.00 0.00 0.00 59 1027.9
20260509144645 52 284 0.0 0.0 0.00 0.00 0.00 57 1027.9
20260509144142 52 345 0.0 1.0 0.00 0.00 0.00 59 1028.1
20260509143639 52 319 1.0 2.0 0.00 0.00 0.00 61 1027.6
20260509143137 50 251 0.0 1.0 0.00 0.00 0.00 62 1028.0
20260509142632 50 321 1.0 2.0 0.00 0.00 0.00 64 1028.0
20260509142129 49 314 2.0 2.0 0.00 0.00 0.00 65 1028.0
20260509141624 48 257 0.0 0.0 0.00 0.00 0.00 66 1028.0
20260509141121 48 289 0.0 0.0 0.00 0.00 0.00 67 1028.0
20260509140618 47 313 2.0 2.0 0.00 0.00 0.00 69 1028.0
20260509140116 46 333 0.0 1.0 0.00 0.00 0.00 68 1027.8
20260509135613 46 239 4.0 5.0 0.00 0.00 0.00 72 1027.8
20260509135111 45 216 0.0 0.0 0.00 0.00 0.00 75 1027.5
20260509134607 43 326 3.0 5.0 0.00 0.00 0.00 77 1027.4
20260509134105 42 325 1.0 1.0 0.00 0.00 0.00 77 1027.6
20260509133602 41 270 0.0 1.0 0.00 0.00 0.00 80 1027.5
20260509133059 40 262 1.0 1.0 0.00 0.00 0.00 83 1027.4
20260509132557 39 199 0.0 0.0 0.00 0.00 0.00 83 1027.4
20260509132055 38 335 3.0 3.0 0.00 0.00 0.00 82 1027.4
20260509131551 37 234 0.0 0.0 0.00 0.00 0.00 83 1027.3
20260509131048 37 309 3.0 3.0 0.00 0.00 0.00 84 1027.0
20260509130544 37 278 2.0 2.0 0.00 0.00 0.00 84 1027.0
20260509130041 36 101 1.0 2.0 0.00 0.00 0.00 85 1026.9
20260509125537 36 191 0.0 0.0 0.00 0.00 0.00 86 1026.9
20260509125034 35 323 2.0 2.0 0.00 0.00 0.00 86 1026.9
20260509124530 34 207 0.0 0.0 0.00 0.00 0.00 86 1026.6
20260509124028 34 178 1.0 1.0 0.00 0.00 0.00 87 1026.6
20260509123526 35 311 4.0 5.0 0.00 0.00 0.00 86 1026.5
20260509123021 34 255 0.0 0.0 0.00 0.00 0.00 87 1026.5
20260509122518 34 245 0.0 0.0 0.00 0.00 0.00 87 1026.3
20260509122015 36 254 4.0 5.0 0.00 0.00 0.00 86 1026.4
20260509121512 35 156 0.0 0.0 0.00 0.00 0.00 86 1026.5
20260509121010 35 333 2.0 3.0 0.00 0.00 0.00 86 1026.4
20260509120508 35 239 0.0 0.0 0.00 0.00 0.00 86 1026.2
20260509120005 34 73 2.0 2.0 0.00 0.00 0.00 85 1026.3
20260509115502 35 216 1.0 1.0 0.00 0.00 0.00 83 1026.3
20260509115000 35 191 0.0 0.0 0.00 0.00 0.00 84 1026.2
20260509114458 35 281 1.0 1.0 0.00 0.00 0.00 82 1026.3
20260509113957 36 147 2.0 2.0 0.00 0.00 0.00 84 1026.3
20260509113454 35 350 3.0 3.0 0.00 0.00 0.00 83 1026.4
20260509112951 35 271 0.0 0.0 0.00 0.00 0.00 83 1026.0
20260509112448 36 190 0.0 0.0 0.00 0.00 0.00 83 1026.0
20260509111944 37 245 1.0 1.0 0.00 0.00 0.00 82 1026.3
20260509111442 38 107 1.0 1.0 0.00 0.00 0.00 83 1026.1
20260509110940 36 39 1.0 1.0 0.00 0.00 0.00 81 1025.9
20260509110435 37 202 0.0 1.0 0.00 0.00 0.00 81 1025.8
20260509105933 36 217 0.0 0.0 0.00 0.00 0.00 81 1026.1
20260509105432 38 208 1.0 2.0 0.00 0.00 0.00 79 1025.9
20260509104928 38 0 1.0 1.0 0.00 0.00 0.00 79 1026.1
20260509104425 39 123 0.0 0.0 0.00 0.00 0.00 78 1025.9
20260509103922 38 145 2.0 2.0 0.00 0.00 0.00 81 1025.9
20260509103420 39 242 3.0 3.0 0.00 0.00 0.00 79 1026.1
20260509102918 40 133 1.0 1.0 0.00 0.00 0.00 77 1025.5
20260509102415 39 197 1.0 1.0 0.00 0.00 0.00 81 1026.0
20260509101911 37 89 1.0 2.0 0.00 0.00 0.00 82 1025.8
20260509101407 39 237 0.0 1.0 0.00 0.00 0.00 80 1025.9
20260509100905 38 181 0.0 0.0 0.00 0.00 0.00 82 1025.8
20260509100402 39 184 4.0 5.0 0.00 0.00 0.00 80 1025.9
20260509095859 39 58 0.0 1.0 0.00 0.00 0.00 80 1025.9
20260509095356 38 239 0.0 0.0 0.00 0.00 0.00 79 1025.7
20260509094853 40 143 0.0 1.0 0.00 0.00 0.00 80 1025.7
20260509094349 39 1 1.0 1.0 0.00 0.00 0.00 79 1025.5
20260509093847 40 223 2.0 2.0 0.00 0.00 0.00 76 1025.8
20260509093344 39 170 1.0 1.0 0.00 0.00 0.00 75 1025.8
20260509092843 39 221 1.0 1.0 0.00 0.00 0.00 78 1025.5
20260509092340 40 221 0.0 0.0 0.00 0.00 0.00 76 1025.4
20260509091838 40 235 0.0 0.0 0.00 0.00 0.00 76 1025.7
20260509091335 40 188 0.0 0.0 0.00 0.00 0.00 77 1025.2
20260509090832 41 245 0.0 1.0 0.00 0.00 0.00 74 1025.4
20260509090329 42 126 0.0 1.0 0.00 0.00 0.00 69 1025.5
20260509085827 41 118 0.0 1.0 0.00 0.00 0.00 77 1025.3
20260509085324 41 258 1.0 1.0 0.00 0.00 0.00 76 1025.2
20260509084820 42 169 2.0 2.0 0.00 0.00 0.00 75 1025.2
20260509084317 42 61 1.0 1.0 0.00 0.00 0.00 71 1025.0
20260509083815 42 164 2.0 2.0 0.00 0.00 0.00 72 1025.0
20260509083311 44 211 0.0 0.0 0.00 0.00 0.00 65 1025.1
20260509082808 42 167 0.0 1.0 0.00 0.00 0.00 70 1025.0
20260509082307 44 240 1.0 2.0 0.00 0.00 0.00 72 1024.9
20260509081802 43 298 0.0 0.0 0.00 0.00 0.00 72 1024.9
20260509081259 46 197 0.0 0.0 0.00 0.00 0.00 66 1024.9
20260509080757 44 79 1.0 1.0 0.00 0.00 0.00 67 1024.7
20260509080254 46 219 2.0 2.0 0.00 0.00 0.00 69 1024.8
20260509075753 46 70 2.0 2.0 0.00 0.00 0.00 64 1024.5
20260509075250 45 226 0.0 0.0 0.00 0.00 0.00 63 1025.1
20260509074746 48 320 2.0 2.0 0.00 0.00 0.00 62 1024.7
20260509074244 48 232 0.0 0.0 0.00 0.00 0.00 58 1024.5
20260509073740 48 145 2.0 2.0 0.00 0.00 0.00 56 1024.7
20260509073237 48 261 0.0 0.0 0.00 0.00 0.00 59 1024.4
20260509072733 49 266 2.0 2.0 0.00 0.00 0.00 59 1024.3
20260509072230 48 91 1.0 1.0 0.00 0.00 0.00 57 1024.3
20260509071727 46 203 0.0 0.0 0.00 0.00 0.00 63 1024.3
20260509071224 49 235 0.0 0.0 0.00 0.00 0.00 63 1024.0
20260509070721 48 83 2.0 3.0 0.00 0.00 0.00 57 1024.1
20260509070217 48 203 0.0 0.0 0.00 0.00 0.00 58 1024.1
20260509065714 48 191 0.0 0.0 0.00 0.00 0.00 58 1024.2
20260509065210 49 257 0.0 1.0 0.00 0.00 0.00 60 1024.3
20260509064707 50 59 0.0 0.0 0.00 0.00 0.00 57 1024.4
20260509064204 49 205 0.0 0.0 0.00 0.00 0.00 55 1024.3
20260509063701 48 123 1.0 1.0 0.00 0.00 0.00 57 1024.2
20260509063158 47 30 2.0 2.0 0.00 0.00 0.00 65 1024.3
20260509062655 47 205 1.0 1.0 0.00 0.00 0.00 67 1024.1
20260509062152 48 206 0.0 0.0 0.00 0.00 0.00 63 1024.0
20260509061649 47 152 2.0 2.0 0.00 0.00 0.00 62 1024.2
20260509061146 49 279 0.0 1.0 0.00 0.00 0.00 57 1024.1
20260509060644 47 98 1.0 1.0 0.00 0.00 0.00 62 1023.8
20260509060140 47 189 0.0 0.0 0.00 0.00 0.00 64 1024.0
20260509055636 46 207 0.0 0.0 0.00 0.00 0.00 61 1024.0
20260509055132 48 203 0.0 0.0 0.00 0.00 0.00 62 1024.0
20260509054628 49 205 0.0 0.0 0.00 0.00 0.00 57 1024.0
20260509054126 50 162 0.0 0.0 0.00 0.00 0.00 55 1023.8
20260509053624 50 68 1.0 1.0 0.00 0.00 0.00 60 1023.9
20260509053121 51 194 0.0 0.0 0.00 0.00 0.00 55 1024.0
20260509052619 52 90 1.0 2.0 0.00 0.00 0.00 50 1023.7
20260509052116 53 60 2.0 2.0 0.00 0.00 0.00 49 1023.6
20260509051614 56 138 0.0 1.0 0.00 0.00 0.00 44 1023.9
20260509051111 56 129 0.0 1.0 0.00 0.00 0.00 42 1023.7
20260509050608 56 200 0.0 0.0 0.00 0.00 0.00 47 1023.6
20260509050104 57 90 1.0 1.0 0.00 0.00 0.00 40 1023.6
20260509045602 56 144 3.0 3.0 0.00 0.00 0.00 47 1023.7
20260509045058 56 43 1.0 2.0 0.00 0.00 0.00 41 1023.7
20260509044556 59 241 0.0 0.0 0.00 0.00 0.00 42 1023.6
20260509044053 62 21 1.0 1.0 0.00 0.00 0.00 32 1023.4
20260509043549 61 242 1.0 1.0 0.00 0.00 0.00 32 1023.6
20260509043045 62 249 3.0 3.0 0.00 0.00 0.00 31 1023.7
20260509042541 62 165 3.0 3.0 0.00 0.00 0.00 31 1023.7
20260509042038 62 235 0.0 1.0 0.00 0.00 0.00 30 1023.6
20260509041534 63 264 3.0 3.0 0.00 0.00 0.00 30 1023.6
20260509041032 63 228 8.0 10.0 0.00 0.00 0.00 29 1023.2
20260509040531 63 196 5.0 6.0 0.00 0.00 0.00 29 1023.4
20260509040027 63 180 3.0 3.0 0.00 0.00 0.00 29 1023.1
20260509035524 62 235 5.0 6.0 0.00 0.00 0.00 30 1023.0
20260509035020 63 210 5.0 6.0 0.00 0.00 0.00 28 1023.0
20260509034519 63 200 4.0 5.0 0.00 0.00 0.00 29 1023.0
20260509034015 63 198 6.0 8.0 0.00 0.00 0.00 28 1022.9
20260509033512 63 169 1.0 2.0 0.00 0.00 0.00 30 1022.8
20260509033009 62 221 0.0 0.0 0.00 0.00 0.00 30 1022.9
20260509032506 61 196 2.0 2.0 0.00 0.00 0.00 32 1022.6
20260509031958 62 187 0.0 0.0 0.00 0.00 0.00 34 1022.5
20260509031455 62 260 3.0 3.0 0.00 0.00 0.00 29 1022.1
20260509030953 63 184 2.0 2.0 0.00 0.00 0.00 34 1022.1
20260509030450 63 222 1.0 1.0 0.00 0.00 0.00 32 1022.2
20260509025947 65 226 1.0 1.0 0.00 0.00 0.00 30 1022.0
20260509025443 64 222 3.0 3.0 0.00 0.00 0.00 28 1021.8
20260509024938 65 208 4.0 5.0 0.00 0.00 0.00 30 1021.7
20260509024435 65 197 2.0 3.0 0.00 0.00 0.00 29 1021.5
20260509023932 65 252 5.0 5.0 0.00 0.00 0.00 32 1021.6
20260509023429 65 211 8.0 9.0 0.00 0.00 0.00 32 1021.6
20260509022926 65 197 6.0 9.0 0.00 0.00 0.00 32 1021.2
20260509022423 65 209 5.0 6.0 0.00 0.00 0.00 30 1021.3
20260509021920 64 214 3.0 5.0 0.00 0.00 0.00 30 1021.1
20260509021417 65 237 4.0 5.0 0.00 0.00 0.00 30 1021.0
20260509020915 65 218 4.0 5.0 0.00 0.00 0.00 29 1021.0
20260509020413 66 223 4.0 6.0 0.00 0.00 0.00 28 1020.9
20260509015909 66 263 5.0 7.0 0.00 0.00 0.00 28 1020.6
20260509015408 68 252 5.0 6.0 0.00 0.00 0.00 25 1020.8
20260509014904 69 258 3.0 5.0 0.00 0.00 0.00 25 1020.6
20260509014401 69 184 3.0 3.0 0.00 0.00 0.00 25 1020.8
20260509013857 68 201 7.0 8.0 0.00 0.00 0.00 23 1020.6
20260509013354 69 195 6.0 8.0 0.00 0.00 0.00 23 1020.7
20260509012850 69 200 4.0 5.0 0.00 0.00 0.00 23 1020.5
20260509012347 68 218 2.0 3.0 0.00 0.00 0.00 22 1020.6
20260509011844 68 184 5.0 6.0 0.00 0.00 0.00 23 1020.6
20260509011342 69 192 8.0 10.0 0.00 0.00 0.00 21 1020.6
20260509010839 68 221 5.0 6.0 0.00 0.00 0.00 23 1020.5
20260509010337 69 245 5.0 6.0 0.00 0.00 0.00 19 1020.5
20260509005833 69 188 6.0 7.0 0.00 0.00 0.00 22 1020.4
20260509005331 68 190 2.0 2.0 0.00 0.00 0.00 22 1020.2
20260509004831 68 193 3.0 3.0 0.00 0.00 0.00 22 1020.6
20260509004328 67 256 2.0 2.0 0.00 0.00 0.00 23 1020.6
20260509003826 67 217 4.0 5.0 0.00 0.00 0.00 21 1020.7
20260509003323 68 205 3.0 5.0 0.00 0.00 0.00 23 1020.8
20260509002820 67 203 7.0 7.0 0.00 0.00 0.00 20 1020.6
20260509002318 67 186 5.0 7.0 0.00 0.00 0.00 20 1020.5
20260509001816 68 221 3.0 5.0 0.00 0.00 0.00 19 1020.7
20260509001311 67 202 4.0 5.0 0.00 0.00 0.00 23 1020.7
20260509000809 67 164 5.0 6.0 0.00 0.00 0.00 20 1020.9
20260509000306 67 175 5.0 6.0 0.00 0.00 0.00 18 1020.8
20260508235757 67 177 5.0 7.0 0.00 0.00 0.00 23 1020.9
20260508235254 67 196 3.0 3.0 0.00 0.00 0.00 26 1020.7
20260508234751 68 226 2.0 2.0 0.00 0.00 0.00 27 1020.8
20260508234247 68 199 0.0 1.0 0.00 0.00 0.00 22 1021.0
20260508233746 68 248 8.0 9.0 0.00 0.00 0.00 19 1020.8
20260508233245 68 164 8.0 9.0 0.00 0.00 0.00 19 1021.0
20260508232742 68 242 4.0 5.0 0.00 0.00 0.00 22 1020.7
20260508232238 68 249 3.0 3.0 0.00 0.00 0.00 26 1020.8
20260508231736 68 262 7.0 9.0 0.00 0.00 0.00 26 1020.6
20260508231232 69 237 6.0 7.0 0.00 0.00 0.00 27 1020.5
20260508230729 69 222 3.0 3.0 0.00 0.00 0.00 30 1020.6
20260508230225 69 214 3.0 3.0 0.00 0.00 0.00 31 1020.6
20260508225724 69 257 3.0 5.0 0.00 0.00 0.00 31 1020.6
20260508225220 70 268 7.0 8.0 0.00 0.00 0.00 32 1020.5
20260508224718 70 256 9.0 9.0 0.00 0.00 0.00 31 1020.6
20260508224215 70 276 4.0 6.0 0.00 0.00 0.00 34 1020.4
20260508223712 70 270 5.0 7.0 0.00 0.00 0.00 32 1020.2
20260508223210 71 279 9.0 10.0 0.00 0.00 0.00 33 1020.5
20260508222707 72 292 5.0 6.0 0.00 0.00 0.00 36 1020.2
20260508222204 71 216 0.0 0.0 0.00 0.00 0.00 35 1020.2
20260508221700 72 178 4.0 5.0 0.00 0.00 0.00 37 1020.4
20260508221156 72 259 0.0 1.0 0.00 0.00 0.00 34 1020.0
20260508220653 72 225 0.0 0.0 0.00 0.00 0.00 33 1020.2
20260508220149 72 30 2.0 2.0 0.00 0.00 0.00 36 1020.4
20260508215646 72 339 5.0 6.0 0.00 0.00 0.00 33 1020.4
20260508215143 72 179 4.0 5.0 0.00 0.00 0.00 35 1020.2
20260508214640 72 169 3.0 5.0 0.00 0.00 0.00 37 1020.4
20260508214137 72 225 3.0 3.0 0.00 0.00 0.00 40 1020.2
20260508213633 72 151 5.0 5.0 0.00 0.00 0.00 36 1020.1
20260508213130 73 124 7.0 8.0 0.00 0.00 0.00 37 1020.5
20260508212626 73 209 1.0 1.0 0.00 0.00 0.00 38 1020.2
20260508212123 72 173 3.0 5.0 0.00 0.00 0.00 38 1020.4
20260508211618 72 167 7.0 9.0 0.00 0.00 0.00 42 1020.6
20260508211115 71 156 5.0 6.0 0.00 0.00 0.00 41 1020.6
20260508210611 72 147 1.0 2.0 0.00 0.00 0.00 41 1020.5
20260508210109 72 216 1.0 1.0 0.00 0.00 0.00 39 1020.5
20260508205606 72 181 8.0 9.0 0.00 0.00 0.00 42 1020.6
20260508205102 71 190 4.0 5.0 0.00 0.00 0.00 41 1020.5
20260508204559 71 231 4.0 5.0 0.00 0.00 0.00 40 1020.7
20260508204055 71 179 7.0 8.0 0.00 0.00 0.00 42 1020.7
20260508203551 71 184 8.0 9.0 0.00 0.00 0.00 42 1020.6
20260508203047 70 141 5.0 7.0 0.00 0.00 0.00 41 1020.7
20260508202544 71 145 3.0 5.0 0.00 0.00 0.00 41 1020.6
20260508202041 71 204 9.0 10.0 0.00 0.00 0.00 44 1020.8
20260508201538 71 161 3.0 3.0 0.00 0.00 0.00 43 1020.9
20260508201034 70 278 2.0 3.0 0.00 0.00 0.00 41 1020.9
20260508200531 70 176 5.0 6.0 0.00 0.00 0.00 44 1020.9
20260508200027 70 178 6.0 7.0 0.00 0.00 0.00 43 1020.8
20260508195524 70 193 2.0 2.0 0.00 0.00 0.00 42 1020.9
20260508195020 69 143 2.0 3.0 0.00 0.00 0.00 42 1021.2
20260508194517 69 225 0.0 0.0 0.00 0.00 0.00 45 1021.1
20260508194014 70 265 3.0 3.0 0.00 0.00 0.00 42 1021.1
20260508193510 69 223 0.0 1.0 0.00 0.00 0.00 43 1021.1
20260508193008 69 127 4.0 5.0 0.00 0.00 0.00 43 1021.1
20260508192504 69 150 4.0 6.0 0.00 0.00 0.00 44 1021.1
20260508192001 68 233 0.0 0.0 0.00 0.00 0.00 45 1021.3
20260508191458 69 235 1.0 2.0 0.00 0.00 0.00 46 1021.2
20260508190954 69 241 0.0 0.0 0.00 0.00 0.00 46 1021.5
20260508190447 69 245 2.0 3.0 0.00 0.00 0.00 43 1021.3
20260508185942 68 177 0.0 1.0 0.00 0.00 0.00 44 1021.6
20260508185440 68 180 1.0 1.0 0.00 0.00 0.00 44 1021.7
20260508184937 68 113 2.0 2.0 0.00 0.00 0.00 45 1021.6
20260508184435 68 194 1.0 2.0 0.00 0.00 0.00 44 1021.8
20260508183931 68 193 4.0 5.0 0.00 0.00 0.00 44 1022.1
20260508183428 69 136 3.0 3.0 0.00 0.00 0.00 46 1022.0
20260508182923 68 202 1.0 1.0 0.00 0.00 0.00 45 1021.9